sat.trackr.live / text

‹ back to catalog

STARLINK-30977

NORAD 58459 · 2023-183Y

PAYLOAD ACTIVE UNKNOWN

§ Identity

Operator
Country
US
Launch date
2023-11-28
Launch site
AFETR
Launch vehicle
Mass (kg)
RCS (m²)

Purposes: comms

External: N2YO · Heavens-Above · Gunter

§ Orbital elements

Epoch: 2026-09-20T19:44:43.681056Z

Period
94.27 min
Inclination
43.0035°
Eccentricity
0.0001325
Mean motion
15.27577911 rev/d
Perigee alt
482.1 km
Apogee alt
484.0 km
Semi-major
6,861.2 km
B*
-2.6371e-5
RAAN
19.9242°
Arg perigee
283.2310°
Mean anomaly
76.8394°
Rev number
15,657

§ Raw data

STARLINK-309771 58459U 23183Y   26263.82272779 -.00000988  00000+0 -26371-4 0  99902 58459  43.0035  19.9242 0001325 283.2310  76.8394 15.27577911156571

JSON: /api/v1/satellites/58459 · /tle

For live sub-satellite position, see the globe view (requires WebGL).

§ Visibility from observer

Set your observer location to see the next 7 days of passes ≥ 10°. The values pass through the URL so the page stays shareable.

No JS? Fill the form by hand. The geolocation button needs JavaScript.